Location: *
(47.8307°S, 178.3954°E)
Time: 23:30:48
(UTC+00:00)

CZ-4C R/B - Pass Details

Date: 12 August 2024
Orbit: 521 x 1470 km, 63.4° (Epoch: 20 September)

Event Time Altitude Azimuth Distance (km) Brightness Sun altitude
Exits shadow 16:02:13 36° 154° (SSE) 1,237 3.3 -32.3°
Maximum altitude 16:02:29 36° 148° (SSE) 1,222 3.3 -32.3°
Drops below altitude 10° 16:06:54 10° 80° (E) 2,103 5.0 -31.6°
Sets 16:09:08 0° 71° (ENE) 2,907 5.8 -31.2°
